JBU241 KBOS-KJFK

Flight info

Callsign JBU241
Flight time 0h 44m
Altitude 22000
Route SSOXS7 SSOXS BUZRD SEY PARCH4
Aircraft A320/M-SDE3FGHIRWY/LB1

Departure

Time 2026-05-08 19:22
Airport Boston Logan International Airport (KBOS)

Arrival

Time 2026-05-08 20:06
Airport John F. Kennedy International Airport (KJFK)
Time Latitude Longitude Altitude Speed Heading
2026-05-08 18:50 42.36056 -71.01953 26 ft 0 kts 28°
2026-05-08 19:11 42.36053 -71.01955 25 ft 2 kts 28°
2026-05-08 19:11 42.36030 -71.01971 30 ft 4 kts 28°
2026-05-08 19:11 42.36011 -71.01985 29 ft 4 kts 43°
2026-05-08 19:11 42.36004 -71.02010 30 ft 4 kts 115°
2026-05-08 19:12 42.36016 -71.02040 28 ft 4 kts 121°
2026-05-08 19:12 42.36025 -71.02060 29 ft 0 kts 121°
2026-05-08 19:16 42.36016 -71.02040 29 ft 5 kts 121°
2026-05-08 19:16 42.35990 -71.01981 28 ft 11 kts 121°
2026-05-08 19:16 42.35939 -71.01863 28 ft 16 kts 121°
2026-05-08 19:16 42.35905 -71.01709 25 ft 18 kts 101°
2026-05-08 19:17 42.35881 -71.01530 25 ft 20 kts 102°
2026-05-08 19:17 42.35861 -71.01403 28 ft 21 kts 92°
2026-05-08 19:17 42.35834 -71.01133 25 ft 15 kts 98°
2026-05-08 19:17 42.35868 -71.00995 30 ft 18 kts 50°
2026-05-08 19:18 42.35957 -71.00854 29 ft 21 kts 49°
2026-05-08 19:18 42.36047 -71.00702 27 ft 21 kts 37°
2026-05-08 19:18 42.36083 -71.00568 30 ft 19 kts 112°
2026-05-08 19:18 42.36038 -71.00394 27 ft 21 kts 108°
2026-05-08 19:19 42.36007 -71.00266 26 ft 22 kts 108°
2026-05-08 19:19 42.35942 -71.00066 28 ft 24 kts 127°
2026-05-08 19:19 42.35817 -70.99899 28 ft 27 kts 131°
2026-05-08 19:19 42.35680 -70.99715 25 ft 29 kts 136°
2026-05-08 19:20 42.35532 -70.99515 26 ft 31 kts 135°
2026-05-08 19:20 42.35493 -70.99394 25 ft 13 kts 69°
2026-05-08 19:20 42.35571 -70.99317 30 ft 4 kts 339°
2026-05-08 19:20 42.35600 -70.99347 27 ft 7 kts 315°
2026-05-08 19:21 42.35601 -70.99348 27 ft 0 kts 314°
2026-05-08 19:21 42.35603 -70.99351 26 ft 2 kts 314°
2026-05-08 19:21 42.35686 -70.99465 26 ft 54 kts 314°
2026-05-08 19:21 42.36175 -71.00115 23 ft 137 kts 315°
2026-05-08 19:22 42.36956 -71.01151 476 ft 169 kts 313°
2026-05-08 19:22 42.37827 -71.02308 1456 ft 178 kts 312°
2026-05-08 19:22 42.38633 -71.03676 2282 ft 193 kts 298°
2026-05-08 19:22 42.39347 -71.05316 2800 ft 214 kts 298°
2026-05-08 19:23 42.40119 -71.07134 3402 ft 235 kts 298°
2026-05-08 19:23 42.40814 -71.09156 4353 ft 240 kts 280°
2026-05-08 19:23 42.40619 -71.11398 5272 ft 248 kts 249°
2026-05-08 19:23 42.39774 -71.13436 6278 ft 252 kts 238°
2026-05-08 19:24 42.38736 -71.15363 7277 ft 255 kts 236°
2026-05-08 19:24 42.37635 -71.17265 8220 ft 259 kts 233°
2026-05-08 19:24 42.36226 -71.18848 9099 ft 271 kts 212°
2026-05-08 19:24 42.34391 -71.19614 9969 ft 285 kts 191°
2026-05-08 19:25 42.32370 -71.19353 10751 ft 301 kts 168°
2026-05-08 19:25 42.30301 -71.18432 11064 ft 325 kts 165°
2026-05-08 19:25 42.28096 -71.17372 11361 ft 345 kts 164°
2026-05-08 19:25 42.25879 -71.15998 11990 ft 357 kts 153°
2026-05-08 19:26 42.23839 -71.14029 12698 ft 366 kts 142°
2026-05-08 19:26 42.21922 -71.11733 13440 ft 370 kts 142°
2026-05-08 19:26 42.19970 -71.09433 14094 ft 375 kts 142°
2026-05-08 19:26 42.17981 -71.07120 14632 ft 381 kts 143°
2026-05-08 19:27 42.15943 -71.04769 15158 ft 388 kts 144°
2026-05-08 19:27 42.13768 -71.02605 15674 ft 392 kts 151°
2026-05-08 19:27 42.11494 -71.00509 16197 ft 399 kts 151°
2026-05-08 19:27 42.10069 -70.99188 16528 ft 403 kts 151°
2026-05-08 19:28 42.07776 -70.97049 17051 ft 410 kts 151°
2026-05-08 19:28 42.05416 -70.94836 17596 ft 417 kts 151°
2026-05-08 19:28 42.03019 -70.92589 18118 ft 424 kts 152°
2026-05-08 19:28 42.00548 -70.90278 18561 ft 430 kts 152°
2026-05-08 19:29 41.98105 -70.88005 19034 ft 436 kts 152°
2026-05-08 19:29 41.95592 -70.85673 19580 ft 439 kts 153°
2026-05-08 19:29 41.93072 -70.83335 20154 ft 442 kts 153°
2026-05-08 19:29 41.90530 -70.80978 20684 ft 445 kts 154°
2026-05-08 19:30 41.87838 -70.79019 21189 ft 435 kts 168°
2026-05-08 19:30 41.84976 -70.77958 21679 ft 421 kts 182°
2026-05-08 19:30 41.82099 -70.77759 21830 ft 405 kts 195°
2026-05-08 19:30 41.79349 -70.78396 21815 ft 396 kts 207°
2026-05-08 19:31 41.76845 -70.79757 21869 ft 383 kts 218°
2026-05-08 19:31 41.74549 -70.81496 21878 ft 381 kts 219°
2026-05-08 19:31 41.72345 -70.83163 21878 ft 381 kts 219°
2026-05-08 19:31 41.70070 -70.84867 21878 ft 381 kts 219°
2026-05-08 19:32 41.67744 -70.86599 21878 ft 381 kts 219°
2026-05-08 19:32 41.65418 -70.88330 21876 ft 381 kts 219°
2026-05-08 19:32 41.63086 -70.90070 21879 ft 384 kts 219°
2026-05-08 19:32 41.60753 -70.91816 21849 ft 385 kts 219°
2026-05-08 19:33 41.58445 -70.93542 21857 ft 385 kts 219°
2026-05-08 19:33 41.56114 -70.95369 21864 ft 380 kts 223°
2026-05-08 19:33 41.54077 -70.97534 21871 ft 370 kts 232°
2026-05-08 19:33 41.52380 -71.00016 21876 ft 363 kts 239°
2026-05-08 19:34 41.51920 -71.00774 21877 ft 363 kts 239°
2026-05-08 19:34 41.50329 -71.03387 21883 ft 363 kts 239°
2026-05-08 19:34 41.48735 -71.05993 21886 ft 363 kts 238°
2026-05-08 19:34 41.47135 -71.08597 21897 ft 363 kts 238°
2026-05-08 19:35 41.45533 -71.11198 21898 ft 363 kts 238°
2026-05-08 19:35 41.43928 -71.13800 21861 ft 363 kts 238°
2026-05-08 19:35 41.42304 -71.16433 21869 ft 363 kts 238°
2026-05-08 19:35 41.41386 -71.17922 21867 ft 363 kts 238°
2026-05-08 19:36 41.39799 -71.20492 21876 ft 363 kts 238°
2026-05-08 19:36 41.38193 -71.23088 21880 ft 363 kts 238°
2026-05-08 19:36 41.36590 -71.25680 21888 ft 363 kts 238°
2026-05-08 19:36 41.34983 -71.28278 21896 ft 363 kts 238°
2026-05-08 19:37 41.33387 -71.30854 21896 ft 363 kts 238°
2026-05-08 19:37 41.31780 -71.33445 21904 ft 363 kts 238°
2026-05-08 19:37 41.30173 -71.36036 21908 ft 363 kts 238°
2026-05-08 19:37 41.28570 -71.38618 21912 ft 363 kts 238°
2026-05-08 19:38 41.26962 -71.41215 21911 ft 363 kts 238°
2026-05-08 19:38 41.25354 -71.43800 21919 ft 363 kts 238°
2026-05-08 19:38 41.23741 -71.46386 21923 ft 363 kts 238°
2026-05-08 19:38 41.22130 -71.48969 21922 ft 363 kts 238°
2026-05-08 19:39 41.20517 -71.51557 21927 ft 363 kts 238°
2026-05-08 19:39 41.18930 -71.54116 21928 ft 363 kts 239°
2026-05-08 19:39 41.17562 -71.56882 21931 ft 355 kts 248°
2026-05-08 19:39 41.16612 -71.59867 21931 ft 349 kts 257°
2026-05-08 19:40 41.16077 -71.62988 21931 ft 345 kts 264°
2026-05-08 19:40 41.15702 -71.66135 21931 ft 346 kts 264°
2026-05-08 19:40 41.15316 -71.69282 21931 ft 346 kts 264°
2026-05-08 19:40 41.14926 -71.72425 21929 ft 346 kts 264°
2026-05-08 19:41 41.14530 -71.75577 21903 ft 346 kts 264°
2026-05-08 19:41 41.14136 -71.78721 21906 ft 346 kts 264°
2026-05-08 19:41 41.13743 -71.81866 21912 ft 346 kts 264°
2026-05-08 19:41 41.13351 -71.85017 21915 ft 346 kts 264°
2026-05-08 19:42 41.12956 -71.88176 21918 ft 346 kts 264°
2026-05-08 19:42 41.12558 -71.91328 21916 ft 347 kts 264°
2026-05-08 19:42 41.12161 -71.94480 21921 ft 347 kts 264°
2026-05-08 19:42 41.11763 -71.97633 21924 ft 347 kts 264°
2026-05-08 19:43 41.11363 -72.00796 21926 ft 347 kts 264°
2026-05-08 19:43 41.10961 -72.03952 21934 ft 347 kts 264°
2026-05-08 19:43 41.10557 -72.07115 21934 ft 347 kts 264°
2026-05-08 19:43 41.10155 -72.10271 21939 ft 348 kts 264°
2026-05-08 19:44 41.09602 -72.13401 21930 ft 351 kts 257°
2026-05-08 19:44 41.08838 -72.16481 21887 ft 349 kts 257°
2026-05-08 19:44 41.08096 -72.19460 21549 ft 339 kts 257°
2026-05-08 19:44 41.07362 -72.22398 21146 ft 332 kts 257°
2026-05-08 19:45 41.06647 -72.25275 20735 ft 326 kts 257°
2026-05-08 19:45 41.05948 -72.28100 20321 ft 320 kts 257°
2026-05-08 19:45 41.05259 -72.30879 19911 ft 315 kts 257°
2026-05-08 19:45 41.04585 -72.33608 19495 ft 310 kts 257°
2026-05-08 19:46 41.03916 -72.36300 19087 ft 306 kts 257°
2026-05-08 19:46 41.03252 -72.38955 18671 ft 302 kts 257°
2026-05-08 19:46 41.01940 -72.44185 17810 ft 295 kts 257°
2026-05-08 19:47 41.01302 -72.46739 17423 ft 290 kts 257°
2026-05-08 19:47 41.00673 -72.49259 17026 ft 287 kts 257°
2026-05-08 19:47 41.00048 -72.51764 16634 ft 285 kts 257°
2026-05-08 19:47 40.99429 -72.54253 16242 ft 283 kts 257°
2026-05-08 19:48 40.98810 -72.56721 15829 ft 282 kts 257°
2026-05-08 19:48 40.98192 -72.59171 15440 ft 280 kts 257°
2026-05-08 19:48 40.97578 -72.61606 15037 ft 278 kts 257°
2026-05-08 19:48 40.96966 -72.64030 14637 ft 277 kts 257°
2026-05-08 19:49 40.96357 -72.66443 14233 ft 276 kts 257°
2026-05-08 19:49 40.95751 -72.68842 13843 ft 274 kts 257°
2026-05-08 19:49 40.95148 -72.71233 13409 ft 273 kts 257°
2026-05-08 19:49 40.94548 -72.73608 13004 ft 271 kts 256°
2026-05-08 19:50 40.93949 -72.75971 12609 ft 270 kts 256°
2026-05-08 19:50 40.93244 -72.78275 12208 ft 272 kts 247°
2026-05-08 19:50 40.92150 -72.80345 11987 ft 284 kts 235°
2026-05-08 19:50 40.90606 -72.82161 11968 ft 307 kts 224°
2026-05-08 19:51 40.88860 -72.83843 11413 ft 312 kts 223°
2026-05-08 19:51 40.87141 -72.85482 11297 ft 310 kts 223°
2026-05-08 19:51 40.85361 -72.87181 11123 ft 311 kts 223°
2026-05-08 19:51 40.83632 -72.88836 10926 ft 310 kts 223°
2026-05-08 19:52 40.81887 -72.90509 10734 ft 309 kts 223°
2026-05-08 19:52 40.80145 -72.92178 10533 ft 308 kts 223°
2026-05-08 19:52 40.78433 -72.93809 10381 ft 297 kts 223°
2026-05-08 19:52 40.76643 -72.95132 10222 ft 294 kts 210°
2026-05-08 19:53 40.74745 -72.96076 9920 ft 291 kts 207°
2026-05-08 19:53 40.72851 -72.96980 9542 ft 285 kts 207°
2026-05-08 19:53 40.71027 -72.97846 9156 ft 274 kts 207°
2026-05-08 19:53 40.69236 -72.98680 8783 ft 273 kts 207°
2026-05-08 19:54 40.67448 -72.99503 8418 ft 271 kts 207°
2026-05-08 19:54 40.65662 -73.00329 8056 ft 272 kts 207°
2026-05-08 19:54 40.63873 -73.01161 7687 ft 271 kts 207°
2026-05-08 19:54 40.62121 -73.01978 7341 ft 271 kts 207°
2026-05-08 19:55 40.60467 -73.02754 7011 ft 270 kts 207°
2026-05-08 19:55 40.58702 -73.03585 6666 ft 269 kts 207°
2026-05-08 19:55 40.57144 -73.04625 6331 ft 257 kts 226°
2026-05-08 19:55 40.56139 -73.06454 5966 ft 244 kts 252°
2026-05-08 19:56 40.55634 -73.08484 5614 ft 242 kts 256°
2026-05-08 19:56 40.55178 -73.10620 5253 ft 242 kts 257°
2026-05-08 19:56 40.54729 -73.12761 4892 ft 242 kts 257°
2026-05-08 19:56 40.54282 -73.14893 4529 ft 242 kts 257°
2026-05-08 19:57 40.53837 -73.17024 4163 ft 242 kts 257°
2026-05-08 19:57 40.53397 -73.19137 3977 ft 237 kts 257°
2026-05-08 19:57 40.52967 -73.21244 3985 ft 239 kts 257°
2026-05-08 19:57 40.52536 -73.23361 3988 ft 240 kts 257°
2026-05-08 19:58 40.52146 -73.25490 3988 ft 239 kts 265°
2026-05-08 19:58 40.52216 -73.27631 3990 ft 238 kts 276°
2026-05-08 19:58 40.52389 -73.29820 3991 ft 237 kts 276°
2026-05-08 19:58 40.52560 -73.31949 3990 ft 238 kts 276°
2026-05-08 19:59 40.52731 -73.34106 3989 ft 237 kts 276°
2026-05-08 19:59 40.52901 -73.36267 3991 ft 238 kts 276°
2026-05-08 19:59 40.53070 -73.38432 3975 ft 238 kts 276°
2026-05-08 19:59 40.53239 -73.40584 3843 ft 236 kts 276°
2026-05-08 20:00 40.53408 -73.42733 3710 ft 236 kts 276°
2026-05-08 20:00 40.53570 -73.44845 3584 ft 228 kts 276°
2026-05-08 20:00 40.53726 -73.46876 3456 ft 219 kts 276°
2026-05-08 20:00 40.53877 -73.48824 3329 ft 210 kts 276°
2026-05-08 20:01 40.54020 -73.50683 3204 ft 200 kts 276°
2026-05-08 20:01 40.54113 -73.51879 3125 ft 194 kts 276°
2026-05-08 20:01 40.54346 -73.53588 3030 ft 190 kts 291°
2026-05-08 20:01 40.54936 -73.55143 2995 ft 191 kts 297°
2026-05-08 20:02 40.55597 -73.56642 2992 ft 184 kts 298°
2026-05-08 20:02 40.56242 -73.58064 2989 ft 179 kts 298°
2026-05-08 20:02 40.56877 -73.59457 2904 ft 177 kts 298°
2026-05-08 20:02 40.57507 -73.60839 2722 ft 176 kts 298°
2026-05-08 20:03 40.58133 -73.62213 2495 ft 175 kts 299°
2026-05-08 20:03 40.58767 -73.63603 2260 ft 175 kts 299°
2026-05-08 20:03 40.59397 -73.64986 2026 ft 178 kts 298°
2026-05-08 20:03 40.60031 -73.66377 1801 ft 175 kts 298°
2026-05-08 20:04 40.60641 -73.67716 1542 ft 164 kts 298°
2026-05-08 20:04 40.61188 -73.68914 1353 ft 140 kts 297°
2026-05-08 20:04 40.61668 -73.69969 1159 ft 132 kts 297°
2026-05-08 20:04 40.62125 -73.70976 981 ft 126 kts 297°
2026-05-08 20:05 40.62574 -73.71970 807 ft 127 kts 297°
2026-05-08 20:05 40.63025 -73.72971 620 ft 127 kts 297°
2026-05-08 20:05 40.63472 -73.73973 414 ft 126 kts 299°
2026-05-08 20:05 40.63924 -73.74959 248 ft 125 kts 300°
2026-05-08 20:06 40.64365 -73.75923 98 ft 121 kts 300°
2026-05-08 20:06 40.64772 -73.76810 25 ft 101 kts 300°
2026-05-08 20:06 40.65055 -73.77434 20 ft 56 kts 301°
2026-05-08 20:06 40.65168 -73.77681 19 ft 7 kts 301°
2026-05-08 20:07 40.65200 -73.77752 20 ft 20 kts 300°
2026-05-08 20:07 40.65211 -73.77918 20 ft 15 kts 231°
2026-05-08 20:07 40.65204 -73.77927 21 ft 0 kts 226°